Central Park, NY
on Thursday, December 7, 2017

Thursday
       
Previous Day Next Day
Daily Summary
 ActualAverageRecord
Temperature
Mean Temperature °F °C 40°F 4°C  
Max Temperature 44°F 7°C 46°F 8°C 75°F 23°C (1998)
Min Temperature 37°F 3°C 35°F 2°C 10°F -12°C (1926)
Degree Days
Heating Degree Days 24 25  
Month to date heating degree days 126 166  
Since 1 July heating degree days 788 999  
Cooling Degree Days 0 0  
Month to date cooling degree days 0 0  
Year to date cooling degree days 1265 1105  
Moisture
Dew Point 20°F -7°C   
Average Humidity 43    
Maximum Humidity 54    
Minimum Humidity 31    
Precipitation
Precipitation 0.00 in / 0.00 cm 0.14 in / 3.56 cm 1.98 in / 5.03 cm (1908)
Month to date precipitation 0.75 0.98  
Year to date precipitation 43.58 46.92  
Snow
Snow 0.00 in / 0.00 cm 0.10 in / 0.25 cm 2.00 in / 5.08 cm (1886)
Month to date snowfall 0.0 0.6  
Since 1 July snowfall T 0.9  
Snow Depth 0.00 in / 0.00 cm   
Wind
Wind Speed 7 mph / 11 km/h   
Max Wind Speed 17 mph / 27 km/h   
Max Gust Speed 31 mph / 50 km/h   
Visibility 10 miles / 16 kilometers   
Events     

Key: T is trace of precipitation, MM is missing value
Source: NWS Daily Summary
Time(EST)TemperatureDew PointHumidity Pressure Visibility Wind DirectionWind SpeedGust SpeedPrecipitationEvents Conditions
12:51 AM 41.0°F 5.0°C 19.9°F -6.7°C 43% 29.99 in / 1015.3 hPa 10.0 miles / 16.1 kilometers WSW 10.4 mph / 16.7 km/h 17.3 mph / 27.8 km/h N/A   Overcast
1:51 AM 39.9°F 4.4°C 19.9°F -6.7°C 45% 29.99 in / 1015.4 hPa 10.0 miles / 16.1 kilometers Variable 6.9 mph / 11.1 km/h - N/A   Scattered Clouds
2:51 AM 39.0°F 3.9°C 19.9°F -6.7°C 46% 29.99 in / 1015.3 hPa 10.0 miles / 16.1 kilometers North - - N/A   Clear
3:51 AM 39.0°F 3.9°C 19.9°F -6.7°C 46% 29.98 in / 1015.1 hPa 10.0 miles / 16.1 kilometers Variable 4.6 mph / 7.4 km/h - N/A   Clear
4:51 AM 37.9°F 3.3°C 21.0°F -6.1°C 51% 29.98 in / 1015.1 hPa 10.0 miles / 16.1 kilometers Variable 4.6 mph / 7.4 km/h - N/A   Clear
5:51 AM 37.9°F 3.3°C 21.0°F -6.1°C 51% 29.99 in / 1015.4 hPa 10.0 miles / 16.1 kilometers West 8.1 mph / 13.0 km/h - N/A   Clear
6:51 AM 37.0°F 2.8°C 21.9°F -5.6°C 54% 30.00 in / 1015.9 hPa 10.0 miles / 16.1 kilometers West 5.8 mph / 9.3 km/h - N/A   Clear
7:51 AM 37.9°F 3.3°C 21.9°F -5.6°C 53% 30.01 in / 1016.3 hPa 10.0 miles / 16.1 kilometers West 11.5 mph / 18.5 km/h 18.4 mph / 29.6 km/h N/A   Clear
8:51 AM 39.0°F 3.9°C 23.0°F -5.0°C 53% 30.02 in / 1016.5 hPa 10.0 miles / 16.1 kilometers Calm Calm - N/A   Clear
9:51 AM 41.0°F 5.0°C 18.0°F -7.8°C 40% 30.03 in / 1016.9 hPa 10.0 miles / 16.1 kilometers WNW 6.9 mph / 11.1 km/h - N/A   Clear
10:51 AM 42.1°F 5.6°C 15.1°F -9.4°C 34% 30.02 in / 1016.6 hPa 10.0 miles / 16.1 kilometers West 13.8 mph / 22.2 km/h 26.5 mph / 42.6 km/h N/A   Clear
11:51 AM 43.0°F 6.1°C 17.1°F -8.3°C 35% 29.99 in / 1015.3 hPa 10.0 miles / 16.1 kilometers West 12.7 mph / 20.4 km/h 23.0 mph / 37.0 km/h N/A   Clear
12:51 PM 44.1°F 6.7°C 19.0°F -7.2°C 37% 29.96 in / 1014.6 hPa 10.0 miles / 16.1 kilometers West 10.4 mph / 16.7 km/h 19.6 mph / 31.5 km/h N/A   Clear
1:51 PM 44.1°F 6.7°C 17.1°F -8.3°C 34% 29.95 in / 1014.2 hPa 10.0 miles / 16.1 kilometers Variable 6.9 mph / 11.1 km/h 19.6 mph / 31.5 km/h N/A   Clear
2:51 PM 44.1°F 6.7°C 18.0°F -7.8°C 35% 29.95 in / 1014.2 hPa 10.0 miles / 16.1 kilometers Variable 6.9 mph / 11.1 km/h 19.6 mph / 31.5 km/h N/A   Clear
3:51 PM 44.1°F 6.7°C 16.0°F -8.9°C 32% 29.96 in / 1014.5 hPa 10.0 miles / 16.1 kilometers Variable 5.8 mph / 9.3 km/h 18.4 mph / 29.6 km/h N/A   Clear
4:51 PM 43.0°F 6.1°C 18.0°F -7.8°C 37% 29.97 in / 1014.7 hPa 10.0 miles / 16.1 kilometers West 3.5 mph / 5.6 km/h - N/A   Clear
5:51 PM 42.1°F 5.6°C 19.9°F -6.7°C 41% 29.97 in / 1014.8 hPa 10.0 miles / 16.1 kilometers Variable 3.5 mph / 5.6 km/h - N/A   Clear
6:51 PM 42.1°F 5.6°C 19.9°F -6.7°C 41% 29.99 in / 1015.6 hPa 10.0 miles / 16.1 kilometers Variable 4.6 mph / 7.4 km/h - N/A   Partly Cloudy
7:51 PM 42.1°F 5.6°C 19.9°F -6.7°C 41% 30.00 in / 1015.7 hPa 10.0 miles / 16.1 kilometers Variable 4.6 mph / 7.4 km/h 16.1 mph / 25.9 km/h N/A   Mostly Cloudy
8:51 PM 41.0°F 5.0°C 19.9°F -6.7°C 43% 30.01 in / 1016.1 hPa 10.0 miles / 16.1 kilometers North - - N/A   Overcast
9:51 PM 41.0°F 5.0°C 21.9°F -5.6°C 47% 30.01 in / 1016.3 hPa 10.0 miles / 16.1 kilometers Variable 6.9 mph / 11.1 km/h - N/A   Overcast
10:51 PM 39.9°F 4.4°C 25.0°F -3.9°C 55% 30.03 in / 1016.9 hPa 10.0 miles / 16.1 kilometers Calm Calm - N/A   Mostly Cloudy
11:51 PM 39.0°F 3.9°C 25.0°F -3.9°C 57% 30.03 in / 1016.8 hPa 10.0 miles / 16.1 kilometers North - - N/A   Scattered Clouds